Time,TemperatureF,DewpointF,PressureIn,WindDirection,WindDirectionDegrees,WindSpeedMPH,WindSpeedGustMPH,Humidity,HourlyPrecipIn,Conditions,Clouds,dailyrainin,SoftwareType,DateUTC
2013-02-24 00:00:00,38.5,24.2,29.74,NE,44,0.0,0.0,56,0.00,,---,0.00,VWS V14.01,2013-02-24 05:00:00,
2013-02-24 00:05:00,37.9,23.7,29.74,NE,44,0.0,0.0,56,0.00,,---,0.00,VWS V14.01,2013-02-24 05:05:00,
2013-02-24 00:11:00,37.4,23.1,29.74,NE,44,0.0,0.0,56,0.00,,---,0.00,VWS V14.01,2013-02-24 05:11:00,
2013-02-24 00:16:00,37.0,23.2,29.74,NE,44,0.0,0.0,57,0.00,,---,0.00,VWS V14.01,2013-02-24 05:16:00,
2013-02-24 00:21:00,37.0,23.6,29.74,NE,44,0.0,0.0,58,0.00,,---,0.00,VWS V14.01,2013-02-24 05:21:00,
2013-02-24 00:26:00,37.2,24.6,29.74,NE,44,0.0,0.0,60,0.00,,---,0.00,VWS V14.01,2013-02-24 05:26:00,
2013-02-24 00:31:00,37.4,25.2,29.74,NE,44,0.0,0.0,61,0.00,,---,0.00,VWS V14.01,2013-02-24 05:31:00,
2013-02-24 00:36:00,37.4,25.2,29.74,NE,44,0.0,0.0,61,0.00,,---,0.00,VWS V14.01,2013-02-24 05:36:00,
2013-02-24 00:41:00,37.8,25.9,29.74,NE,44,0.0,0.0,62,0.00,,---,0.00,VWS V14.01,2013-02-24 05:41:00,
2013-02-24 00:46:00,37.9,26.5,29.74,NE,44,0.0,0.0,63,0.00,,---,0.00,VWS V14.01,2013-02-24 05:46:00,
2013-02-24 00:51:00,37.8,26.3,29.74,NE,44,2.7,2.7,63,0.00,,---,0.00,VWS V14.01,2013-02-24 05:51:00,
2013-02-24 00:56:00,37.9,26.9,29.74,NE,45,0.0,0.0,64,0.00,,---,0.00,VWS V14.01,2013-02-24 05:56:00,
2013-02-24 01:01:00,38.1,27.4,29.74,NE,45,0.0,0.0,65,0.00,,---,0.00,VWS V14.01,2013-02-24 06:01:00,
2013-02-24 01:06:00,37.9,26.9,29.74,NE,45,0.0,0.0,64,0.00,,---,0.00,VWS V14.01,2013-02-24 06:06:00,
2013-02-24 01:11:00,37.6,26.5,29.74,NE,45,0.0,0.0,64,0.00,,---,0.00,VWS V14.01,2013-02-24 06:11:00,
2013-02-24 01:16:00,37.6,26.5,29.74,NE,45,0.0,0.0,64,0.00,,---,0.00,VWS V14.01,2013-02-24 06:16:00,
2013-02-24 01:21:00,37.8,27.1,29.74,NE,44,0.0,0.0,65,0.00,,---,0.00,VWS V14.01,2013-02-24 06:21:00,
2013-02-24 01:26:00,37.8,27.1,29.74,NE,45,0.0,0.0,65,0.00,,---,0.00,VWS V14.01,2013-02-24 06:26:00,
2013-02-24 01:31:00,37.9,27.2,29.74,NE,45,0.0,0.0,65,0.00,,---,0.00,VWS V14.01,2013-02-24 06:31:00,
2013-02-24 01:36:00,38.1,27.8,29.74,NE,45,0.0,0.0,66,0.00,,---,0.00,VWS V14.01,2013-02-24 06:36:00,
2013-02-24 01:41:00,38.5,28.9,29.74,NE,45,0.0,0.0,68,0.00,,---,0.00,VWS V14.01,2013-02-24 06:41:00,
2013-02-24 01:46:00,38.7,29.0,29.74,NE,45,0.0,0.0,68,0.00,,---,0.00,VWS V14.01,2013-02-24 06:46:00,
2013-02-24 01:51:00,38.7,29.0,29.74,NE,45,0.0,0.0,68,0.00,,---,0.00,VWS V14.01,2013-02-24 06:51:00,
2013-02-24 01:56:00,38.8,29.2,29.74,NE,45,0.0,0.0,68,0.00,,---,0.00,VWS V14.01,2013-02-24 06:56:00,
2013-02-24 02:01:00,39.0,29.4,29.74,NE,45,0.0,0.0,68,0.00,,---,0.00,VWS V14.01,2013-02-24 07:01:00,
2013-02-24 02:06:00,39.0,29.4,29.74,NE,35,0.0,0.0,68,0.00,,---,0.00,VWS V14.01,2013-02-24 07:06:00,
2013-02-24 02:11:00,39.2,29.2,29.74,NE,35,0.0,0.0,67,0.00,,---,0.00,VWS V14.01,2013-02-24 07:11:00,
2013-02-24 02:16:00,39.0,28.6,29.74,NE,35,0.0,0.0,66,0.00,,---,0.00,VWS V14.01,2013-02-24 07:16:00,
2013-02-24 02:21:00,39.2,28.4,29.74,ENE,64,0.0,0.0,65,0.00,,---,0.00,VWS V14.01,2013-02-24 07:21:00,
2013-02-24 02:26:00,39.4,28.2,29.74,ENE,64,0.0,0.0,64,0.00,,---,0.00,VWS V14.01,2013-02-24 07:26:00,
2013-02-24 02:31:00,39.4,27.9,29.74,ENE,64,0.0,0.0,63,0.00,,---,0.00,VWS V14.01,2013-02-24 07:31:00,
2013-02-24 02:36:00,39.2,27.3,29.74,ENE,64,0.0,0.0,62,0.00,,---,0.00,VWS V14.01,2013-02-24 07:36:00,
2013-02-24 02:41:00,39.0,27.1,29.74,ENE,64,0.0,0.0,62,0.00,,---,0.00,VWS V14.01,2013-02-24 07:41:00,
2013-02-24 02:46:00,38.7,26.8,29.74,ENE,64,0.0,0.0,62,0.00,,---,0.00,VWS V14.01,2013-02-24 07:46:00,
2013-02-24 02:51:00,38.5,26.6,29.74,ENE,64,0.0,0.0,62,0.00,,---,0.00,VWS V14.01,2013-02-24 07:51:00,
2013-02-24 02:57:00,38.5,26.6,29.74,ENE,64,0.0,0.0,62,0.00,,---,0.00,VWS V14.01,2013-02-24 07:57:00,
2013-02-24 03:02:00,38.7,26.8,29.74,ENE,64,0.0,0.0,62,0.00,,---,0.00,VWS V14.01,2013-02-24 08:02:00,
2013-02-24 03:07:00,39.0,27.5,29.74,West,262,2.7,2.7,63,0.00,,---,0.00,VWS V14.01,2013-02-24 08:07:00,
2013-02-24 03:12:00,39.4,27.5,29.74,West,261,0.0,0.0,62,0.00,,---,0.00,VWS V14.01,2013-02-24 08:12:00,
2013-02-24 03:17:00,39.4,27.1,29.74,WSW,244,3.1,4.0,61,0.00,,---,0.00,VWS V14.01,2013-02-24 08:17:00,
2013-02-24 03:22:00,39.7,26.6,29.74,WSW,238,4.0,4.0,59,0.00,,---,0.00,VWS V14.01,2013-02-24 08:22:00,
2013-02-24 03:27:00,39.9,25.9,29.77,WSW,242,3.6,5.4,57,0.00,,---,0.00,VWS V14.01,2013-02-24 08:27:00,
2013-02-24 03:32:00,39.7,25.3,29.77,SSW,210,2.7,3.6,56,0.00,,---,0.00,VWS V14.01,2013-02-24 08:32:00,
2013-02-24 03:37:00,39.4,25.0,29.77,SSW,210,0.0,0.0,56,0.00,,---,0.00,VWS V14.01,2013-02-24 08:37:00,
2013-02-24 03:42:00,39.0,25.1,29.77,West,272,3.1,3.1,57,0.00,,---,0.00,VWS V14.01,2013-02-24 08:42:00,
2013-02-24 03:47:00,39.0,25.1,29.77,WSW,238,0.0,0.0,57,0.00,,---,0.00,VWS V14.01,2013-02-24 08:47:00,
2013-02-24 03:52:00,38.8,24.5,29.77,SSE,160,2.7,2.7,56,0.00,,---,0.00,VWS V14.01,2013-02-24 08:52:00,
2013-02-24 03:57:00,38.8,24.5,29.77,WSW,243,0.0,0.0,56,0.00,,---,0.00,VWS V14.01,2013-02-24 08:57:00,
2013-02-24 04:02:00,38.7,23.9,29.77,WSW,243,0.0,0.0,55,0.00,,---,0.00,VWS V14.01,2013-02-24 09:02:00,
2013-02-24 04:07:00,38.5,23.7,29.77,WSW,243,0.0,0.0,55,0.00,,---,0.00,VWS V14.01,2013-02-24 09:07:00,
2013-02-24 04:12:00,37.9,22.8,29.74,WSW,243,0.0,0.0,54,0.00,,---,0.00,VWS V14.01,2013-02-24 09:12:00,
2013-02-24 04:17:00,37.6,22.5,29.74,WSW,243,0.0,0.0,54,0.00,,---,0.00,VWS V14.01,2013-02-24 09:17:00,
2013-02-24 04:22:00,37.0,22.0,29.74,WSW,243,0.0,0.0,54,0.00,,---,0.00,VWS V14.01,2013-02-24 09:22:00,
2013-02-24 04:27:00,36.3,21.3,29.77,WSW,245,0.0,0.0,54,0.00,,---,0.00,VWS V14.01,2013-02-24 09:27:00,
2013-02-24 04:32:00,35.8,21.2,29.77,NE,34,0.0,0.0,55,0.00,,---,0.00,VWS V14.01,2013-02-24 09:32:00,
2013-02-24 04:37:00,35.4,20.9,29.77,NE,34,0.0,0.0,55,0.00,,---,0.00,VWS V14.01,2013-02-24 09:37:00,
2013-02-24 04:42:00,35.1,21.0,29.74,NE,34,0.0,0.0,56,0.00,,---,0.00,VWS V14.01,2013-02-24 09:42:00,
2013-02-24 04:47:00,34.9,20.8,29.74,NE,34,0.0,0.0,56,0.00,,---,0.00,VWS V14.01,2013-02-24 09:47:00,
2013-02-24 04:52:00,34.5,20.5,29.74,NE,34,0.0,0.0,56,0.00,,---,0.00,VWS V14.01,2013-02-24 09:52:00,
2013-02-24 04:57:00,34.3,20.7,29.74,NE,34,2.7,2.7,57,0.00,,---,0.00,VWS V14.01,2013-02-24 09:57:00,
2013-02-24 05:02:00,34.0,20.4,29.74,NE,34,0.0,0.0,57,0.00,,---,0.00,VWS V14.01,2013-02-24 10:02:00,
2013-02-24 05:07:00,33.8,20.6,29.74,NE,35,0.0,0.0,58,0.00,,---,0.00,VWS V14.01,2013-02-24 10:07:00,
2013-02-24 05:12:00,33.6,20.4,29.77,ENE,57,2.7,3.1,58,0.00,,---,0.00,VWS V14.01,2013-02-24 10:12:00,
2013-02-24 05:17:00,33.6,20.8,29.77,ENE,57,0.0,0.0,59,0.00,,---,0.00,VWS V14.01,2013-02-24 10:17:00,
2013-02-24 05:22:00,33.6,20.8,29.77,NE,53,2.7,2.7,59,0.00,,---,0.00,VWS V14.01,2013-02-24 10:22:00,
2013-02-24 05:27:00,33.4,20.3,29.77,NE,52,0.0,0.0,58,0.00,,---,0.00,VWS V14.01,2013-02-24 10:27:00,
2013-02-24 05:32:00,33.3,20.1,29.77,NE,52,2.7,3.1,58,0.00,,---,0.00,VWS V14.01,2013-02-24 10:32:00,
2013-02-24 05:37:00,33.3,20.1,29.77,NE,50,0.0,0.0,58,0.00,,---,0.00,VWS V14.01,2013-02-24 10:37:00,
2013-02-24 05:42:00,32.9,19.8,29.77,NE,50,0.0,0.0,58,0.00,,---,0.00,VWS V14.01,2013-02-24 10:42:00,
2013-02-24 05:47:00,32.7,19.6,29.77,NE,50,0.0,0.0,58,0.00,,---,0.00,VWS V14.01,2013-02-24 10:47:00,
2013-02-24 05:52:00,32.5,19.8,29.77,NE,50,0.0,0.0,59,0.00,,---,0.00,VWS V14.01,2013-02-24 10:52:00,
2013-02-24 05:57:00,32.5,19.8,29.77,NE,46,2.7,4.0,59,0.00,,---,0.00,VWS V14.01,2013-02-24 10:57:00,
2013-02-24 06:02:00,32.5,19.8,29.77,NE,46,0.0,0.0,59,0.00,,---,0.00,VWS V14.01,2013-02-24 11:02:00,
2013-02-24 06:07:00,32.7,20.0,29.77,NNE,32,0.0,0.0,59,0.00,,---,0.00,VWS V14.01,2013-02-24 11:07:00,
2013-02-24 06:12:00,32.5,19.4,29.77,NNE,32,3.6,3.6,58,0.00,,---,0.00,VWS V14.01,2013-02-24 11:12:00,
2013-02-24 06:17:00,32.5,19.4,29.77,NE,41,0.0,0.0,58,0.00,,---,0.00,VWS V14.01,2013-02-24 11:17:00,
2013-02-24 06:22:00,32.5,19.4,29.77,NE,41,0.0,0.0,58,0.00,,---,0.00,VWS V14.01,2013-02-24 11:22:00,
2013-02-24 06:28:00,32.2,18.7,29.77,NE,41,0.0,0.0,57,0.00,,---,0.00,VWS V14.01,2013-02-24 11:28:00,
2013-02-24 06:33:00,32.0,18.5,29.77,NE,41,0.0,0.0,57,0.00,,---,0.00,VWS V14.01,2013-02-24 11:33:00,
2013-02-24 06:38:00,31.8,18.3,29.77,NE,40,0.0,0.0,57,0.00,,---,0.00,VWS V14.01,2013-02-24 11:38:00,
2013-02-24 06:43:00,31.5,18.4,29.77,NE,40,0.0,0.0,58,0.00,,---,0.00,VWS V14.01,2013-02-24 11:43:00,
2013-02-24 06:48:00,31.3,18.2,29.77,NE,40,0.0,0.0,58,0.00,,---,0.00,VWS V14.01,2013-02-24 11:48:00,
2013-02-24 06:53:00,31.1,18.5,29.77,NE,40,0.0,0.0,59,0.00,,---,0.00,VWS V14.01,2013-02-24 11:53:00,
2013-02-24 06:58:00,31.1,18.5,29.80,SW,219,2.2,4.0,59,0.00,,---,0.00,VWS V14.01,2013-02-24 11:58:00,
2013-02-24 07:03:00,31.3,18.6,29.80,SW,219,0.0,0.0,59,0.00,,---,0.00,VWS V14.01,2013-02-24 12:03:00,
2013-02-24 07:08:00,31.1,18.5,29.80,NE,47,0.0,0.0,59,0.00,,---,0.00,VWS V14.01,2013-02-24 12:08:00,
2013-02-24 07:13:00,31.1,18.5,29.80,East,89,0.0,0.0,59,0.00,,---,0.00,VWS V14.01,2013-02-24 12:13:00,
2013-02-24 07:18:00,31.1,18.9,29.80,NNE,19,0.0,0.0,60,0.00,,---,0.00,VWS V14.01,2013-02-24 12:18:00,
2013-02-24 07:23:00,31.3,18.6,29.80,NNE,19,0.0,0.0,59,0.00,,---,0.00,VWS V14.01,2013-02-24 12:23:00,
2013-02-24 07:28:00,31.3,18.6,29.80,SSW,194,0.0,0.0,59,0.00,,---,0.00,VWS V14.01,2013-02-24 12:28:00,
2013-02-24 07:33:00,31.3,18.6,29.80,South,175,0.0,0.0,59,0.00,,---,0.00,VWS V14.01,2013-02-24 12:33:00,
2013-02-24 07:38:00,31.5,18.8,29.80,South,172,0.0,0.0,59,0.00,,---,0.00,VWS V14.01,2013-02-24 12:38:00,
2013-02-24 07:43:00,31.6,19.0,29.80,SE,145,4.9,4.9,59,0.00,,---,0.00,VWS V14.01,2013-02-24 12:43:00,
2013-02-24 07:48:00,32.4,19.2,29.80,South,177,0.0,0.0,58,0.00,,---,0.00,VWS V14.01,2013-02-24 12:48:00,
2013-02-24 07:53:00,32.5,19.0,29.80,ENE,61,2.2,2.7,57,0.00,,---,0.00,VWS V14.01,2013-02-24 12:53:00,
2013-02-24 07:58:00,33.1,18.3,29.80,WNW,294,0.0,0.0,54,0.00,,---,0.00,VWS V14.01,2013-02-24 12:58:00,
2013-02-24 08:03:00,33.1,18.3,29.80,WNW,294,0.0,0.0,54,0.00,,---,0.00,VWS V14.01,2013-02-24 13:03:00,
2013-02-24 08:08:00,33.1,17.8,29.80,WNW,294,0.0,0.0,53,0.00,,---,0.00,VWS V14.01,2013-02-24 13:08:00,
2013-02-24 08:13:00,33.1,17.8,29.80,SSW,206,2.2,2.7,53,0.00,,---,0.00,VWS V14.01,2013-02-24 13:13:00,
2013-02-24 08:18:00,33.1,17.4,29.80,South,186,3.6,3.6,52,0.00,,---,0.00,VWS V14.01,2013-02-24 13:18:00,
2013-02-24 08:23:00,33.1,17.4,29.80,SSW,199,3.1,3.1,52,0.00,,---,0.00,VWS V14.01,2013-02-24 13:23:00,
2013-02-24 08:28:00,33.1,16.9,29.83,SSW,200,3.1,3.6,51,0.00,,---,0.00,VWS V14.01,2013-02-24 13:28:00,
2013-02-24 08:33:00,33.1,16.9,29.83,SSW,207,0.0,3.1,51,0.00,,---,0.00,VWS V14.01,2013-02-24 13:33:00,
2013-02-24 08:38:00,33.1,16.9,29.83,SW,234,2.2,5.4,51,0.00,,---,0.00,VWS V14.01,2013-02-24 13:38:00,
2013-02-24 08:44:00,33.1,16.9,29.83,WSW,244,3.1,3.6,51,0.00,,---,0.00,VWS V14.01,2013-02-24 13:44:00,
2013-02-24 08:49:00,33.4,17.3,29.83,SSW,209,0.0,0.0,51,0.00,,---,0.00,VWS V14.01,2013-02-24 13:49:00,
2013-02-24 08:54:00,33.8,15.7,29.83,SSW,198,8.3,10.1,47,0.00,,---,0.00,VWS V14.01,2013-02-24 13:54:00,
2013-02-24 08:59:00,34.5,14.9,29.83,SW,227,3.1,6.3,44,0.00,,---,0.00,VWS V14.01,2013-02-24 13:59:00,
2013-02-24 09:04:00,35.1,14.8,29.83,WSW,241,6.7,8.7,43,0.00,,---,0.00,VWS V14.01,2013-02-24 14:04:00,
2013-02-24 09:09:00,35.4,14.6,29.83,SW,230,6.3,8.3,42,0.00,,---,0.00,VWS V14.01,2013-02-24 14:09:00,
2013-02-24 09:14:00,35.6,14.2,29.83,SW,222,7.6,7.6,41,0.00,,---,0.00,VWS V14.01,2013-02-24 14:14:00,
2013-02-24 09:19:00,35.6,13.7,29.83,South,191,8.1,10.5,40,0.00,,---,0.00,VWS V14.01,2013-02-24 14:19:00,
2013-02-24 09:24:00,35.8,13.8,29.83,WSW,248,10.1,10.1,40,0.00,,---,0.00,VWS V14.01,2013-02-24 14:24:00,
2013-02-24 09:29:00,36.1,14.2,29.83,SSE,164,6.3,6.3,40,0.00,,---,0.00,VWS V14.01,2013-02-24 14:29:00,
2013-02-24 09:34:00,36.1,14.2,29.83,SSW,195,9.2,9.2,40,0.00,,---,0.00,VWS V14.01,2013-02-24 14:34:00,
2013-02-24 09:39:00,36.3,13.8,29.83,SSE,159,11.0,12.8,39,0.00,,---,0.00,VWS V14.01,2013-02-24 14:39:00,
2013-02-24 09:44:00,36.5,13.9,29.83,SSW,200,11.0,11.0,39,0.00,,---,0.00,VWS V14.01,2013-02-24 14:44:00,
2013-02-24 09:49:00,36.7,13.5,29.83,South,174,5.8,5.8,38,0.00,,---,0.00,VWS V14.01,2013-02-24 14:49:00,
2013-02-24 09:54:00,36.9,13.6,29.83,WSW,244,5.8,6.3,38,0.00,,---,0.00,VWS V14.01,2013-02-24 14:54:00,
2013-02-24 09:59:00,37.0,13.8,29.83,SSW,197,5.4,5.8,38,0.00,,---,0.00,VWS V14.01,2013-02-24 14:59:00,
2013-02-24 10:04:00,37.4,13.5,29.83,SSW,193,7.6,8.7,37,0.00,,---,0.00,VWS V14.01,2013-02-24 15:04:00,
2013-02-24 10:09:00,37.2,13.4,29.83,South,184,2.7,3.6,37,0.00,,---,0.00,VWS V14.01,2013-02-24 15:09:00,
2013-02-24 10:14:00,37.4,12.9,29.83,SW,215,6.3,10.1,36,0.00,,---,0.00,VWS V14.01,2013-02-24 15:14:00,
2013-02-24 10:19:00,37.4,12.3,29.83,SSW,203,3.1,4.5,35,0.00,,---,0.00,VWS V14.01,2013-02-24 15:19:00,
2013-02-24 10:25:00,37.6,12.4,29.83,SW,226,8.1,10.1,35,0.00,,---,0.00,VWS V14.01,2013-02-24 15:25:00,
2013-02-24 10:30:00,37.6,11.8,29.83,SSW,200,4.0,12.3,34,0.00,,---,0.00,VWS V14.01,2013-02-24 15:30:00,
2013-02-24 10:35:00,37.8,11.9,29.83,East,98,3.6,4.9,34,0.00,,---,0.00,VWS V14.01,2013-02-24 15:35:00,
2013-02-24 10:40:00,38.1,12.2,29.83,SW,221,8.3,8.7,34,0.00,,---,0.00,VWS V14.01,2013-02-24 15:40:00,
2013-02-24 10:45:00,38.3,11.7,29.83,SW,214,10.1,15.9,33,0.00,,---,0.00,VWS V14.01,2013-02-24 15:45:00,
2013-02-24 10:50:00,38.3,11.0,29.83,SW,234,7.6,14.1,32,0.00,,---,0.00,VWS V14.01,2013-02-24 15:50:00,
2013-02-24 10:55:00,38.3,11.0,29.83,SW,217,10.1,12.8,32,0.00,,---,0.00,VWS V14.01,2013-02-24 15:55:00,
2013-02-24 11:00:00,38.5,11.2,29.83,SSW,200,10.5,11.0,32,0.00,,---,0.00,VWS V14.01,2013-02-24 16:00:00,
2013-02-24 11:05:00,38.7,11.4,29.83,SSE,162,8.3,8.7,32,0.00,,---,0.00,VWS V14.01,2013-02-24 16:05:00,
2013-02-24 11:10:00,38.8,11.5,29.83,SW,217,6.3,15.9,32,0.00,,---,0.00,VWS V14.01,2013-02-24 16:10:00,
2013-02-24 11:15:00,39.2,11.1,29.83,South,187,9.6,9.6,31,0.00,,---,0.00,VWS V14.01,2013-02-24 16:15:00,
2013-02-24 11:20:00,39.4,11.3,29.83,SSW,194,8.1,8.1,31,0.00,,---,0.00,VWS V14.01,2013-02-24 16:20:00,
2013-02-24 11:25:00,39.7,11.6,29.83,SW,231,5.4,10.5,31,0.00,,---,0.00,VWS V14.01,2013-02-24 16:25:00,
2013-02-24 11:30:00,40.3,12.1,29.83,SSE,153,4.9,4.9,31,0.00,,---,0.00,VWS V14.01,2013-02-24 16:30:00,
2013-02-24 11:35:00,41.2,12.1,29.83,South,185,4.9,5.4,30,0.00,,---,0.00,VWS V14.01,2013-02-24 16:35:00,
2013-02-24 11:40:00,41.7,12.6,29.83,SSW,194,10.5,10.5,30,0.00,,---,0.00,VWS V14.01,2013-02-24 16:40:00,
2013-02-24 11:45:00,41.0,11.2,29.83,SW,220,8.1,9.6,29,0.00,,---,0.00,VWS V14.01,2013-02-24 16:45:00,
2013-02-24 11:50:00,40.6,11.6,29.83,SSE,165,5.4,8.1,30,0.00,,---,0.00,VWS V14.01,2013-02-24 16:50:00,
2013-02-24 11:55:00,41.0,11.2,29.83,SW,220,11.0,12.3,29,0.00,,---,0.00,VWS V14.01,2013-02-24 16:55:00,
2013-02-24 12:00:00,41.0,11.2,29.83,SSW,213,8.3,8.3,29,0.00,,---,0.00,VWS V14.01,2013-02-24 17:00:00,
2013-02-24 12:05:00,41.0,11.2,29.83,SSW,207,8.1,13.2,29,0.00,,---,0.00,VWS V14.01,2013-02-24 17:05:00,
2013-02-24 12:10:00,41.0,11.2,29.83,WSW,238,9.6,15.4,29,0.00,,---,0.00,VWS V14.01,2013-02-24 17:10:00,
2013-02-24 12:15:00,41.2,11.4,29.83,SSW,199,9.6,9.6,29,0.00,,---,0.00,VWS V14.01,2013-02-24 17:15:00,
2013-02-24 12:21:00,41.7,11.8,29.83,SSW,195,8.1,13.2,29,0.00,,---,0.00,VWS V14.01,2013-02-24 17:21:00,
2013-02-24 12:26:00,42.1,12.1,29.83,South,180,8.7,10.5,29,0.00,,---,0.00,VWS V14.01,2013-02-24 17:26:00,
2013-02-24 12:31:00,42.1,12.1,29.83,ESE,104,4.0,5.8,29,0.00,,---,0.00,VWS V14.01,2013-02-24 17:31:00,
2013-02-24 12:36:00,43.3,13.2,29.83,WSW,249,3.1,5.8,29,0.00,,---,0.00,VWS V14.01,2013-02-24 17:36:00,
2013-02-24 12:41:00,43.9,12.9,29.83,WSW,242,8.3,10.5,28,0.00,,---,0.00,VWS V14.01,2013-02-24 17:41:00,
2013-02-24 12:46:00,43.7,12.8,29.83,South,189,12.8,13.2,28,0.00,,---,0.00,VWS V14.01,2013-02-24 17:46:00,
2013-02-24 12:51:00,43.3,12.4,29.83,SSW,204,5.8,10.1,28,0.00,,---,0.00,VWS V14.01,2013-02-24 17:51:00,
2013-02-24 12:56:00,43.2,12.3,29.83,SSW,213,9.2,11.4,28,0.00,,---,0.00,VWS V14.01,2013-02-24 17:56:00,
2013-02-24 13:01:00,43.2,12.3,29.83,SW,235,5.4,8.3,28,0.00,,---,0.00,VWS V14.01,2013-02-24 18:01:00,
2013-02-24 13:06:00,43.3,12.4,29.83,SSW,199,4.0,8.1,28,0.00,,---,0.00,VWS V14.01,2013-02-24 18:06:00,
2013-02-24 13:11:00,44.1,13.1,29.80,SSW,202,13.2,13.2,28,0.00,,---,0.00,VWS V14.01,2013-02-24 18:11:00,
2013-02-24 13:16:00,43.9,12.9,29.80,SW,231,5.4,8.1,28,0.00,,---,0.00,VWS V14.01,2013-02-24 18:16:00,
2013-02-24 13:21:00,44.1,13.1,29.80,SW,216,5.8,5.8,28,0.00,,---,0.00,VWS V14.01,2013-02-24 18:21:00,
2013-02-24 13:26:00,44.4,13.4,29.83,SSW,211,11.4,11.4,28,0.00,,---,0.00,VWS V14.01,2013-02-24 18:26:00,
2013-02-24 13:31:00,44.6,12.7,29.83,SW,222,5.8,5.8,27,0.00,,---,0.00,VWS V14.01,2013-02-24 18:31:00,
2013-02-24 13:36:00,44.6,12.7,29.83,South,178,12.3,12.3,27,0.00,,---,0.00,VWS V14.01,2013-02-24 18:36:00,
2013-02-24 13:41:00,44.8,12.9,29.83,South,176,4.0,4.0,27,0.00,,---,0.00,VWS V14.01,2013-02-24 18:41:00,
2013-02-24 13:46:00,46.0,13.9,29.83,ENE,76,2.7,4.0,27,0.00,,---,0.00,VWS V14.01,2013-02-24 18:46:00,
2013-02-24 13:51:00,46.8,14.6,29.83,SSW,207,8.3,9.2,27,0.00,,---,0.00,VWS V14.01,2013-02-24 18:51:00,
2013-02-24 13:56:00,46.6,14.4,29.83,SSE,165,8.1,8.1,27,0.00,,---,0.00,VWS V14.01,2013-02-24 18:56:00,
2013-02-24 14:01:00,46.2,12.4,29.83,SSE,161,9.6,9.6,25,0.00,,---,0.00,VWS V14.01,2013-02-24 19:01:00,
2013-02-24 14:06:00,45.7,11.9,29.83,SW,217,7.6,10.5,25,0.00,,---,0.00,VWS V14.01,2013-02-24 19:06:00,
2013-02-24 14:11:00,45.5,11.7,29.80,SSW,197,8.3,9.2,25,0.00,,---,0.00,VWS V14.01,2013-02-24 19:11:00,
2013-02-24 14:17:00,45.9,12.0,29.80,SW,235,12.3,12.3,25,0.00,,---,0.00,VWS V14.01,2013-02-24 19:17:00,
2013-02-24 14:22:00,46.0,12.2,29.80,South,169,8.3,8.3,25,0.00,,---,0.00,VWS V14.01,2013-02-24 19:22:00,
2013-02-24 14:27:00,46.2,14.1,29.80,SSW,192,5.4,7.2,27,0.00,,---,0.00,VWS V14.01,2013-02-24 19:27:00,
2013-02-24 14:32:00,46.6,14.4,29.80,SW,222,5.4,12.8,27,0.00,,---,0.00,VWS V14.01,2013-02-24 19:32:00,
2013-02-24 14:37:00,46.6,11.7,29.80,SW,214,6.3,6.3,24,0.00,,---,0.00,VWS V14.01,2013-02-24 19:37:00,
2013-02-24 14:42:00,46.4,11.6,29.80,SSW,205,8.7,8.7,24,0.00,,---,0.00,VWS V14.01,2013-02-24 19:42:00,
2013-02-24 14:47:00,46.4,11.6,29.80,SSW,208,10.1,10.1,24,0.00,,---,0.00,VWS V14.01,2013-02-24 19:47:00,
2013-02-24 14:52:00,46.0,12.2,29.80,SSW,200,17.4,17.4,25,0.00,,---,0.00,VWS V14.01,2013-02-24 19:52:00,
2013-02-24 14:57:00,46.0,12.2,29.83,SW,228,5.4,8.3,25,0.00,,---,0.00,VWS V14.01,2013-02-24 19:57:00,
2013-02-24 15:02:00,46.2,12.4,29.83,SW,232,5.8,8.3,25,0.00,,---,0.00,VWS V14.01,2013-02-24 20:02:00,
2013-02-24 15:07:00,46.8,11.9,29.83,SSW,210,8.7,8.7,24,0.00,,---,0.00,VWS V14.01,2013-02-24 20:07:00,
2013-02-24 15:12:00,47.3,12.4,29.83,WSW,242,5.8,10.5,24,0.00,,---,0.00,VWS V14.01,2013-02-24 20:12:00,
2013-02-24 15:17:00,47.5,10.6,29.83,SSW,199,7.6,8.7,22,0.00,,---,0.00,VWS V14.01,2013-02-24 20:17:00,
2013-02-24 15:22:00,47.8,12.8,29.83,South,179,5.8,7.6,24,0.00,,---,0.00,VWS V14.01,2013-02-24 20:22:00,
2013-02-24 15:27:00,48.2,10.1,29.83,SW,226,5.8,8.3,21,0.00,,---,0.00,VWS V14.01,2013-02-24 20:27:00,
2013-02-24 15:32:00,47.7,10.7,29.83,WSW,246,8.1,8.1,22,0.00,,---,0.00,VWS V14.01,2013-02-24 20:32:00,
2013-02-24 15:37:00,47.5,10.6,29.83,SSW,194,3.6,4.0,22,0.00,,---,0.00,VWS V14.01,2013-02-24 20:37:00,
2013-02-24 15:43:00,48.2,10.1,29.83,SSW,207,8.1,8.3,21,0.00,,---,0.00,VWS V14.01,2013-02-24 20:43:00,
2013-02-24 15:48:00,48.0,11.0,29.83,WSW,241,5.4,7.6,22,0.00,,---,0.00,VWS V14.01,2013-02-24 20:48:00,
2013-02-24 15:53:00,48.2,10.1,29.83,ESE,106,3.6,5.4,21,0.00,,---,0.00,VWS V14.01,2013-02-24 20:53:00,
2013-02-24 15:58:00,48.0,11.0,29.83,East,95,3.6,3.6,22,0.00,,---,0.00,VWS V14.01,2013-02-24 20:58:00,
2013-02-24 16:03:00,48.0,11.0,29.83,SSE,161,5.4,5.4,22,0.00,,---,0.00,VWS V14.01,2013-02-24 21:03:00,
2013-02-24 16:08:00,48.2,10.1,29.83,SSW,197,5.4,8.7,21,0.00,,---,0.00,VWS V14.01,2013-02-24 21:08:00,
2013-02-24 16:13:00,47.3,10.4,29.83,WSW,243,4.9,4.9,22,0.00,,---,0.00,VWS V14.01,2013-02-24 21:13:00,
2013-02-24 16:18:00,47.3,10.4,29.83,ENE,74,3.1,3.6,22,0.00,,---,0.00,VWS V14.01,2013-02-24 21:18:00,
2013-02-24 16:23:00,47.7,10.7,29.83,SSW,194,4.0,4.0,22,0.00,,---,0.00,VWS V14.01,2013-02-24 21:23:00,
2013-02-24 16:28:00,48.0,11.0,29.83,SSW,210,3.1,4.0,22,0.00,,---,0.00,VWS V14.01,2013-02-24 21:28:00,
2013-02-24 16:33:00,48.0,11.0,29.83,SSW,200,3.6,3.6,22,0.00,,---,0.00,VWS V14.01,2013-02-24 21:33:00,
2013-02-24 16:38:00,48.0,11.0,29.83,SSW,205,6.3,7.6,22,0.00,,---,0.00,VWS V14.01,2013-02-24 21:38:00,
2013-02-24 16:43:00,47.7,10.7,29.83,SSW,194,5.8,6.3,22,0.00,,---,0.00,VWS V14.01,2013-02-24 21:43:00,
2013-02-24 16:48:00,47.3,10.4,29.83,SSE,165,10.1,10.1,22,0.00,,---,0.00,VWS V14.01,2013-02-24 21:48:00,
2013-02-24 16:53:00,46.9,10.1,29.83,South,189,8.3,10.1,22,0.00,,---,0.00,VWS V14.01,2013-02-24 21:53:00,
2013-02-24 16:58:00,46.4,9.6,29.86,South,175,4.0,5.8,22,0.00,,---,0.00,VWS V14.01,2013-02-24 21:58:00,
2013-02-24 17:03:00,46.4,9.6,29.86,SSW,207,8.1,8.1,22,0.00,,---,0.00,VWS V14.01,2013-02-24 22:03:00,
2013-02-24 17:08:00,46.2,9.5,29.86,South,191,5.4,5.4,22,0.00,,---,0.00,VWS V14.01,2013-02-24 22:08:00,
2013-02-24 17:13:00,46.0,9.3,29.86,WSW,237,4.0,4.0,22,0.00,,---,0.00,VWS V14.01,2013-02-24 22:13:00,
2013-02-24 17:18:00,45.7,9.0,29.86,South,186,5.8,7.6,22,0.00,,---,0.00,VWS V14.01,2013-02-24 22:18:00,
2013-02-24 17:23:00,44.6,8.1,29.86,SW,220,7.6,10.5,22,0.00,,---,0.00,VWS V14.01,2013-02-24 22:23:00,
2013-02-24 17:29:00,43.7,8.3,29.86,SW,224,6.3,6.3,23,0.00,,---,0.00,VWS V14.01,2013-02-24 22:29:00,
2013-02-24 17:34:00,43.5,8.2,29.86,SSW,208,8.1,8.7,23,0.00,,---,0.00,VWS V14.01,2013-02-24 22:34:00,
2013-02-24 17:39:00,43.2,7.9,29.86,SW,234,3.1,7.2,23,0.00,,---,0.00,VWS V14.01,2013-02-24 22:39:00,
2013-02-24 17:44:00,42.4,7.3,29.86,West,262,4.0,4.0,23,0.00,,---,0.00,VWS V14.01,2013-02-24 22:44:00,
2013-02-24 17:49:00,42.1,7.0,29.86,SW,215,3.1,3.1,23,0.00,,---,0.00,VWS V14.01,2013-02-24 22:49:00,
2013-02-24 17:54:00,41.5,6.5,29.86,ESE,111,0.0,0.0,23,0.00,,---,0.00,VWS V14.01,2013-02-24 22:54:00,
2013-02-24 17:59:00,41.0,8.8,29.86,NNW,345,0.0,0.0,26,0.00,,---,0.00,VWS V14.01,2013-02-24 22:59:00,
2013-02-24 18:04:00,40.5,8.3,29.86,SE,139,0.0,0.0,26,0.00,,---,0.00,VWS V14.01,2013-02-24 23:04:00,
2013-02-24 18:09:00,39.6,7.5,29.86,SW,220,2.7,3.6,26,0.00,,---,0.00,VWS V14.01,2013-02-24 23:09:00,
2013-02-24 18:14:00,39.0,7.1,29.89,SW,234,0.0,0.0,26,0.00,,---,0.00,VWS V14.01,2013-02-24 23:14:00,
2013-02-24 18:19:00,38.7,6.7,29.89,SW,217,3.6,8.1,26,0.00,,---,0.00,VWS V14.01,2013-02-24 23:19:00,
2013-02-24 18:24:00,38.5,6.6,29.89,SW,223,3.6,3.6,26,0.00,,---,0.00,VWS V14.01,2013-02-24 23:24:00,
2013-02-24 18:29:00,38.1,8.7,29.89,SSE,156,0.0,0.0,29,0.00,,---,0.00,VWS V14.01,2013-02-24 23:29:00,
2013-02-24 18:34:00,37.8,8.4,29.89,SSW,197,5.8,8.7,29,0.00,,---,0.00,VWS V14.01,2013-02-24 23:34:00,
2013-02-24 18:39:00,37.6,8.2,29.89,WSW,237,0.0,0.0,29,0.00,,---,0.00,VWS V14.01,2013-02-24 23:39:00,
2013-02-24 18:44:00,37.4,8.1,29.89,ENE,58,3.1,3.1,29,0.00,,---,0.00,VWS V14.01,2013-02-24 23:44:00,
2013-02-24 18:49:00,36.9,8.3,29.89,South,185,5.4,5.4,30,0.00,,---,0.00,VWS V14.01,2013-02-24 23:49:00,
2013-02-24 18:54:00,37.0,8.5,29.89,South,178,2.7,3.1,30,0.00,,---,0.00,VWS V14.01,2013-02-24 23:54:00,
2013-02-24 18:59:00,36.9,8.3,29.89,SSE,167,2.2,3.1,30,0.00,,---,0.00,VWS V14.01,2013-02-24 23:59:00,
2013-02-24 19:04:00,36.5,8.0,29.89,SSE,167,0.0,0.0,30,0.00,,---,0.00,VWS V14.01,2013-02-25 00:04:00,
2013-02-24 19:09:00,36.0,7.6,29.89,SSE,167,0.0,0.0,30,0.00,,---,0.00,VWS V14.01,2013-02-25 00:09:00,
2013-02-24 19:14:00,35.4,7.8,29.92,SSE,167,0.0,0.0,31,0.00,,---,0.00,VWS V14.01,2013-02-25 00:14:00,
2013-02-24 19:19:00,34.9,7.3,29.92,SSE,167,0.0,0.0,31,0.00,,---,0.00,VWS V14.01,2013-02-25 00:19:00,
2013-02-24 19:24:00,34.5,7.7,29.92,East,83,4.0,4.0,32,0.00,,---,0.00,VWS V14.01,2013-02-25 00:24:00,
2013-02-24 19:29:00,34.7,7.9,29.92,NE,41,0.0,0.0,32,0.00,,---,0.00,VWS V14.01,2013-02-25 00:29:00,
2013-02-24 19:34:00,34.9,8.0,29.92,WNW,286,3.1,4.0,32,0.00,,---,0.00,VWS V14.01,2013-02-25 00:34:00,
2013-02-24 19:39:00,35.2,8.4,29.92,WSW,253,3.6,4.9,32,0.00,,---,0.00,VWS V14.01,2013-02-25 00:39:00,
2013-02-24 19:44:00,35.4,8.5,29.92,WSW,248,0.0,0.0,32,0.00,,---,0.00,VWS V14.01,2013-02-25 00:44:00,
2013-02-24 19:49:00,34.9,8.0,29.92,WSW,248,0.0,0.0,32,0.00,,---,0.00,VWS V14.01,2013-02-25 00:49:00,
2013-02-24 19:54:00,34.3,8.2,29.92,ESE,115,0.0,0.0,33,0.00,,---,0.00,VWS V14.01,2013-02-25 00:54:00,
2013-02-24 19:59:00,34.2,8.1,29.92,SSW,200,0.0,0.0,33,0.00,,---,0.00,VWS V14.01,2013-02-25 00:59:00,
2013-02-24 20:05:00,34.0,7.9,29.92,SE,138,0.0,0.0,33,0.00,,---,0.00,VWS V14.01,2013-02-25 01:05:00,
2013-02-24 20:10:00,33.8,7.8,29.92,SE,138,0.0,0.0,33,0.00,,---,0.00,VWS V14.01,2013-02-25 01:10:00,
2013-02-24 20:15:00,33.3,8.6,29.92,East,88,0.0,0.0,35,0.00,,---,0.00,VWS V14.01,2013-02-25 01:15:00,
2013-02-24 20:20:00,32.7,8.7,29.92,East,88,0.0,0.0,36,0.00,,---,0.00,VWS V14.01,2013-02-25 01:20:00,
2013-02-24 20:25:00,32.5,9.2,29.92,East,86,0.0,3.1,37,0.00,,---,0.00,VWS V14.01,2013-02-25 01:25:00,
2013-02-24 20:30:00,32.2,9.4,29.92,East,85,2.7,2.7,38,0.00,,---,0.00,VWS V14.01,2013-02-25 01:30:00,
2013-02-24 20:35:00,31.6,9.0,29.92,East,85,0.0,0.0,38,0.00,,---,0.00,VWS V14.01,2013-02-25 01:35:00,
2013-02-24 20:40:00,31.3,9.8,29.92,NNE,21,2.2,3.1,40,0.00,,---,0.00,VWS V14.01,2013-02-25 01:40:00,
2013-02-24 20:45:00,31.1,9.6,29.95,NNE,21,2.2,2.7,40,0.00,,---,0.00,VWS V14.01,2013-02-25 01:45:00,
2013-02-24 20:50:00,31.1,9.6,29.95,ENE,68,0.0,4.0,40,0.00,,---,0.00,VWS V14.01,2013-02-25 01:50:00,
2013-02-24 20:55:00,31.3,9.8,29.95,ENE,78,0.0,2.7,40,0.00,,---,0.00,VWS V14.01,2013-02-25 01:55:00,
2013-02-24 21:00:00,31.1,9.6,29.95,NNE,31,0.0,0.0,40,0.00,,---,0.00,VWS V14.01,2013-02-25 02:00:00,
2013-02-24 21:05:00,30.9,10.0,29.95,NE,46,0.0,0.0,41,0.00,,---,0.00,VWS V14.01,2013-02-25 02:05:00,
2013-02-24 21:10:00,30.7,9.8,29.95,ENE,72,2.7,3.1,41,0.00,,---,0.00,VWS V14.01,2013-02-25 02:10:00,
2013-02-24 21:15:00,31.1,10.2,29.95,East,85,0.0,2.7,41,0.00,,---,0.00,VWS V14.01,2013-02-25 02:15:00,
2013-02-24 21:20:00,31.1,10.2,29.95,ENE,69,3.1,3.1,41,0.00,,---,0.00,VWS V14.01,2013-02-25 02:20:00,
2013-02-24 21:25:00,30.9,10.0,29.95,ENE,73,3.1,3.1,41,0.00,,---,0.00,VWS V14.01,2013-02-25 02:25:00,
2013-02-24 21:30:00,31.1,10.2,29.95,East,79,2.7,3.1,41,0.00,,---,0.00,VWS V14.01,2013-02-25 02:30:00,
2013-02-24 21:35:00,31.1,10.2,29.95,ENE,61,2.2,2.2,41,0.00,,---,0.00,VWS V14.01,2013-02-25 02:35:00,
2013-02-24 21:40:00,30.9,10.0,29.95,ENE,61,2.7,2.7,41,0.00,,---,0.00,VWS V14.01,2013-02-25 02:40:00,
2013-02-24 21:45:00,30.4,9.5,29.95,ENE,62,2.7,3.1,41,0.00,,---,0.00,VWS V14.01,2013-02-25 02:45:00,
2013-02-24 21:50:00,30.4,9.5,29.95,SE,128,2.7,2.7,41,0.00,,---,0.00,VWS V14.01,2013-02-25 02:50:00,
2013-02-24 21:55:00,30.0,9.2,29.95,ESE,118,2.2,3.6,41,0.00,,---,0.00,VWS V14.01,2013-02-25 02:55:00,
2013-02-24 22:00:00,29.7,9.4,29.95,NE,35,2.7,2.7,42,0.00,,---,0.00,VWS V14.01,2013-02-25 03:00:00,
2013-02-24 22:05:00,29.8,9.6,29.95,East,85,0.0,2.7,42,0.00,,---,0.00,VWS V14.01,2013-02-25 03:05:00,
2013-02-24 22:10:00,29.7,9.4,29.95,ENE,61,2.2,2.2,42,0.00,,---,0.00,VWS V14.01,2013-02-25 03:10:00,
2013-02-24 22:15:00,29.5,9.2,29.95,ENE,64,0.0,0.0,42,0.00,,---,0.00,VWS V14.01,2013-02-25 03:15:00,
2013-02-24 22:20:00,29.5,9.2,29.95,ENE,62,0.0,0.0,42,0.00,,---,0.00,VWS V14.01,2013-02-25 03:20:00,
2013-02-24 22:25:00,29.3,9.6,29.98,ENE,57,0.0,0.0,43,0.00,,---,0.00,VWS V14.01,2013-02-25 03:25:00,
2013-02-24 22:30:00,29.1,9.4,29.98,NE,49,0.0,0.0,43,0.00,,---,0.00,VWS V14.01,2013-02-25 03:30:00,
2013-02-24 22:35:00,28.8,9.1,29.98,NE,49,0.0,0.0,43,0.00,,---,0.00,VWS V14.01,2013-02-25 03:35:00,
2013-02-24 22:40:00,28.6,8.9,29.98,NE,49,0.0,0.0,43,0.00,,---,0.00,VWS V14.01,2013-02-25 03:40:00,
2013-02-24 22:45:00,28.4,9.3,29.95,NE,49,0.0,0.0,44,0.00,,---,0.00,VWS V14.01,2013-02-25 03:45:00,
2013-02-24 22:50:00,28.2,9.1,29.95,NE,48,0.0,0.0,44,0.00,,---,0.00,VWS V14.01,2013-02-25 03:50:00,
2013-02-24 22:56:00,28.0,8.9,29.95,NE,48,0.0,0.0,44,0.00,,---,0.00,VWS V14.01,2013-02-25 03:56:00,
2013-02-24 23:00:00,27.9,8.8,29.95,NE,45,0.0,0.0,44,0.00,,---,0.00,VWS V14.01,2013-02-25 04:00:00,
2013-02-24 23:05:00,27.7,9.1,29.95,NE,45,0.0,0.0,45,0.00,,---,0.00,VWS V14.01,2013-02-25 04:05:00,
2013-02-24 23:11:00,27.5,9.0,29.95,NE,45,0.0,0.0,45,0.00,,---,0.00,VWS V14.01,2013-02-25 04:11:00,
2013-02-24 23:16:00,27.5,9.4,29.95,ENE,57,0.0,0.0,46,0.00,,---,0.00,VWS V14.01,2013-02-25 04:16:00,
2013-02-24 23:21:00,27.3,9.3,29.95,NE,50,0.0,0.0,46,0.00,,---,0.00,VWS V14.01,2013-02-25 04:21:00,
2013-02-24 23:26:00,27.0,8.9,29.98,NE,50,0.0,0.0,46,0.00,,---,0.00,VWS V14.01,2013-02-25 04:26:00,
2013-02-24 23:31:00,26.8,9.3,29.98,NE,50,0.0,0.0,47,0.00,,---,0.00,VWS V14.01,2013-02-25 04:31:00,
2013-02-24 23:36:00,27.0,9.9,29.98,ENE,74,2.2,2.7,48,0.00,,---,0.00,VWS V14.01,2013-02-25 04:36:00,
2013-02-24 23:41:00,27.5,9.9,29.95,NNE,31,0.0,0.0,47,0.00,,---,0.00,VWS V14.01,2013-02-25 04:41:00,
2013-02-24 23:46:00,27.5,9.9,29.95,NNE,31,0.0,0.0,47,0.00,,---,0.00,VWS V14.01,2013-02-25 04:46:00,
2013-02-24 23:51:00,27.3,9.3,29.95,NNE,31,0.0,0.0,46,0.00,,---,0.00,VWS V14.01,2013-02-25 04:51:00,
2013-02-24 23:56:00,27.1,9.1,29.98,NNE,31,0.0,0.0,46,0.00,,---,0.00,VWS V14.01,2013-02-25 04:56:00,